OBJECT AR, 61774

Orbit data source: Space-Track

You're viewing an Uncataloged Satellite

Recently launched and/or uncataloged satellites may have evolving metadata. Metadata may include but not limited to: Owner, Maufacturer, Bus, Motor, and Mission.

OBJECT AR, 61774 is a satellite in SSO that was launched on Mon, 04 Nov 2024 UTC via a SOYUZ-2-1B launch vehicle from the Vostochny Cosmodrome (VOSTO). Unknown objects in Earth's orbit typically refer to objects detected orbiting the Earth but have not yet been identified or cataloged. These objects could be anything from previously untracked satellites, spent rocket stages, debris from satellite collisions, or even natural meteoroids temporarily captured by Earth's gravity.

Loading next visibility...
Identifier
61774, 2024-199AR
Orbit
SSO
Country
Flag of TBDTBD
Related business
Manufacturer
Sputniks
Mission
Operational Commercial Communications
Bus & Motor
CUBESAT 3U?, Unknown motor
Mass
3 kg wet, 3 kg dry
Launch date (UTC)
2024-11-04 (2 years ago)
Launch vehicle
SOYUZ-2-1B
Launch site
Vostochny Cosmodrome (VOSTO)
Object type
Unknown
Shape & HBR
Box, 0.1 m
Radar Cross Section
0.035 m², Small (<0.1 m²)

Expand to show TLE details & history
Last TLE update: 10 hours ago

TLE from 10 hours ago
0 OBJECT AR
1 61774U 24199AR  26145.60433955  .00048442  00000-0  64575-3 0  9995
2 61774  97.2928  21.5444 0007105  33.0094 327.1604 15.57952877130953
Epoch: 2026-05-25T14:30Z
TLE epoch observation values (Epoch: 2026-05-25T14:30:14.937Z)
Latitude
-0.00002°
Longitude
-79.20758°
Altitude
392.685 km
Speed
7.677 km/s
True Right ascension
01h 26m 10s
True Declination
0° 00' 00"
Sunlit
Object was in daylight at epoch
Visualization orbit readout
Latitude
Unknown
Longitude
Unknown
Altitude
Unknown
Speed
Unknown
Apparent Right ascension
Unknown
Apparent Declination
Unknown
Sunlit
N/A
Visualization observer readout
Local Sidereal Time
09:59:35
Azimuth
Unknown
Elevation
Unknown
Doppler factor
Unknown
Orbital elements
Apogee altitude
395.302 km
Perigee altitude
385.684 km
Semi-major axis
6,768.63 km
Eccentricity
0.00071
Inclination
97.2928°
RAAN
21.5444°
Arg. of periapsis
33.0094°
True anomaly
327.11622°
Mean anomaly
327.1604°
Eccentric anomaly
327.13831°
Mean motion
3.89755 °/min
Orbital period
92.37 mins
BSTAR
0.00064575
Loading maneuver chart data...
Computing Atmospheric mass density...
Loading historical data...
Loading historical data...
Loading historical data...
Loading historical data...
Loading historical data...
Loading historical data...
Loading historical data...

Documentation

Showing up to 5 results
|